Location: Rounton
(54.4000°N, 1.3500°W)
Time: 19:06:12
(UTC+00:00)

Altair - Pass Details

Date: 06 December 2021
Orbit: 1501 x 1683 km, 47.2° (Epoch: 16 January)

Event Time Altitude Azimuth Distance (km) Brightness Sun altitude
Rises 14:28:32 0° 208° (SSW) 4,797 12.6 6.4°
Reaches altitude 10° 14:32:09 10° 199° (SSW) 3,786 11.4 6.1°
Maximum altitude 14:39:59 30° 143° (SE) 2,511 8.9 5.4°
Drops below altitude 10° 14:47:37 10° 87° (E) 3,690 9.1 4.7°
Sets 14:51:04 0° 78° (ENE) 4,658 9.5 4.4°
